sat.trackr.live / text

‹ back to catalog

TJS-9

NORAD 50574 · 2021-135A

PAYLOAD ACTIVE UNKNOWN

§ Identity

Operator
Country
PRC
Launch date
2021-12-29
Launch site
XICLF
Launch vehicle
Mass (kg)
RCS (m²)

Purposes: comms

External: N2YO · Heavens-Above · Gunter

§ Orbital elements

Epoch: 2026-09-19T22:45:18.043200Z

Period
1,436.05 min
Inclination
0.0209°
Eccentricity
0.0005183
Mean motion
1.00274784 rev/d
Perigee alt
35,763.9 km
Apogee alt
35,807.6 km
Semi-major
42,163.9 km
B*
0.0000e+0
RAAN
119.4898°
Arg perigee
220.8190°
Mean anomaly
137.0856°
Rev number
1,738

§ Raw data

TJS-91 50574U 21135A   26262.94812550 -.00000302  00000+0  00000+0 0  99992 50574   0.0209 119.4898 0005183 220.8190 137.0856  1.00274784 17385

JSON: /api/v1/satellites/50574 · /tle

For live sub-satellite position, see the globe view (requires WebGL).

§ Visibility from observer

Set your observer location to see the next 7 days of passes ≥ 10°. The values pass through the URL so the page stays shareable.

No JS? Fill the form by hand. The geolocation button needs JavaScript.